W4GHW Weather Reports


time (UTC)temp
F
wind
direction
speed
knots
gust
knots
rain 1hr
in
rain 24hr
in
rain mn
in
humidity
%
barometer
mb
20260906125043 77 297 3.5 7.0 0.00 0.00 0.00 89 1013.7
20260906124815 78 322 1.7 6.1 0.00 0.00 0.00 90 1014.7
20260906124540 77 310 0.9 6.1 0.00 0.00 0.00 90 1013.7
20260906124038 77 265 0.9 3.5 0.00 0.00 0.00 91 1013.5
20260906123532 76 296 0.9 5.2 0.00 0.00 0.00 92 1013.6
20260906123339 77 248 1.7 5.2 0.00 0.00 0.00 92 1014.5
20260906123006 76 286 0.9 5.2 0.00 0.00 0.00 92 1013.5
20260906122504 76 282 1.7 5.2 0.00 0.00 0.00 92 1013.5
20260906122004 75 287 0.9 4.3 0.00 0.00 0.00 92 1013.5
20260906121823 76 281 1.7 4.3 0.00 0.00 0.00 92 1014.5
20260906121558 75 264 1.7 4.3 0.00 0.00 0.00 92 1013.5
20260906121056 75 263 1.7 5.2 0.00 0.00 0.00 92 1013.4
20260906120550 75 271 1.7 3.5 0.00 0.00 0.00 92 1013.3
20260906120348 75 265 2.6 3.5 0.00 0.00 0.00 92 1014.3
20260906120031 75 278 0.9 3.5 0.00 0.00 0.00 92 1013.3
20260906115524 75 273 1.7 4.3 0.00 0.00 0.00 92 1013.2
20260906115021 75 256 0.9 4.3 0.00 0.00 0.00 92 1013.1
20260906114826 75 268 1.7 4.3 0.00 0.00 0.00 92 1014.1
20260906114535 75 261 0.9 2.6 0.00 0.00 0.00 92 1013.1
20260906114017 75 283 0.9 2.6 0.00 0.00 0.00 92 1012.9
20260906113516 75 269 0.9 3.5 0.00 0.00 0.00 92 1012.9
20260906113328 75 265 0.9 3.5 0.00 0.00 0.00 92 1013.9
20260906113017 75 267 0.9 3.5 0.00 0.00 0.00 92 1013.0
20260906112510 75 275 0.9 3.5 0.00 0.00 0.00 92 1012.9
20260906112008 75 271 0.9 2.6 0.00 0.00 0.00 92 1013.0
20260906111827 75 270 0.9 2.6 0.00 0.00 0.00 92 1014.0
20260906111504 75 288 0.9 3.5 0.00 0.00 0.00 92 1013.0
20260906111101 75 259 1.7 3.5 0.00 0.00 0.00 92 1012.9
20260906111002 75 294 1.7 3.5 0.00 0.00 0.00 92 1012.9
20260906110558 75 266 0.9 2.6 0.00 0.00 0.00 92 1012.9
20260906110329 75 286 1.7 2.6 0.00 0.00 0.00 92 1013.8
20260906110057 75 284 0.9 2.6 0.00 0.00 0.00 92 1012.8
20260906105553 75 264 0.9 3.5 0.00 0.00 0.00 92 1012.8
20260906105046 75 257 0.9 3.5 0.00 0.00 0.00 92 1012.7
20260906104851 75 259 1.7 3.5 0.00 0.00 0.00 92 1013.8
20260906104524 75 226 0.9 3.5 0.00 0.00 0.00 92 1012.8
20260906104020 75 295 1.7 3.5 0.00 0.00 0.00 92 1012.7
20260906103517 75 283 0.9 3.5 0.00 0.00 0.00 92 1012.6
20260906103333 75 287 0.9 3.5 0.00 0.00 0.00 92 1013.5
20260906103014 75 269 1.7 3.5 0.00 0.00 0.00 92 1012.6
20260906102512 75 270 0.9 5.2 0.00 0.00 0.00 92 1012.5
20260906102010 75 281 1.7 5.2 0.00 0.00 0.00 92 1012.6
20260906101832 76 268 1.7 7.0 0.00 0.00 0.00 92 1013.4
20260906101517 75 283 1.7 7.0 0.00 0.00 0.00 92 1012.6
20260906101007 75 262 1.7 4.3 0.00 0.00 0.00 92 1012.6
20260906100506 75 294 0.9 3.5 0.00 0.00 0.00 92 1012.5
20260906100314 75 284 1.7 3.5 0.00 0.00 0.00 92 1013.4
20260906100058 75 292 1.7 3.5 0.00 0.00 0.00 92 1012.6
20260906095558 75 279 0.9 3.5 0.00 0.00 0.00 92 1012.5
20260906095054 75 261 0.9 2.6 0.00 0.00 0.00 92 1012.4
20260906094818 75 269 0.9 2.6 0.00 0.00 0.00 91 1013.3
20260906094551 75 256 0.9 2.6 0.00 0.00 0.00 91 1012.3
20260906094050 75 264 0.0 1.7 0.00 0.00 0.00 91 1012.3
20260906093547 75 264 0.9 1.7 0.00 0.00 0.00 91 1012.2
20260906093328 76 264 0.9 1.7 0.00 0.00 0.00 91 1013.0
20260906093038 75 264 0.0 1.7 0.00 0.00 0.00 91 1012.1
20260906092538 75 264 0.0 1.7 0.00 0.00 0.00 91 1012.1
20260906092036 75 246 0.0 2.6 0.00 0.00 0.00 91 1012.2
20260906091817 75 246 0.9 2.6 0.00 0.00 0.00 91 1013.1
20260906091528 75 246 0.0 2.6 0.00 0.00 0.00 91 1012.2
20260906091026 75 240 0.0 1.7 0.00 0.00 0.00 91 1012.2
20260906090526 75 242 0.0 1.7 0.00 0.00 0.00 91 1012.0
20260906090329 76 242 0.9 1.7 0.00 0.00 0.00 91 1012.9
20260906090020 75 242 0.0 1.7 0.00 0.00 0.00 91 1012.0
20260906085518 75 242 0.0 1.7 0.00 0.00 0.00 91 1012.0
20260906085013 75 242 0.0 1.7 0.00 0.00 0.00 91 1012.1
20260906084821 76 242 0.0 1.7 0.00 0.00 0.00 91 1012.9
20260906084510 75 242 0.0 1.7 0.00 0.00 0.00 91 1012.1
20260906084007 75 242 0.0 1.7 0.00 0.00 0.00 91 1011.9
20260906083510 75 242 0.0 1.7 0.00 0.00 0.00 91 1011.9
20260906083313 76 242 0.0 1.7 0.00 0.00 0.00 91 1012.7
20260906083100 75 242 0.0 1.7 0.00 0.00 0.00 90 1011.8
20260906083003 75 242 0.0 1.7 0.00 0.00 0.00 90 1011.8
20260906082557 75 242 0.0 0.9 0.00 0.00 0.00 90 1011.9
20260906082054 75 242 0.0 0.9 0.00 0.00 0.00 90 1012.0
20260906081821 76 242 0.0 0.9 0.00 0.00 0.00 90 1012.8
20260906081549 76 242 0.0 0.9 0.00 0.00 0.00 90 1011.9
20260906081048 76 242 0.0 0.9 0.00 0.00 0.00 90 1011.8
20260906080546 76 246 0.0 2.6 0.00 0.00 0.00 90 1011.8
20260906080313 76 246 0.9 2.6 0.00 0.00 0.00 90 1012.7
20260906080041 76 246 0.0 2.6 0.00 0.00 0.00 90 1011.8
20260906075539 76 223 0.0 2.6 0.00 0.00 0.00 90 1011.8
20260906075032 76 249 0.0 2.6 0.00 0.00 0.00 90 1011.8
20260906074823 76 249 0.9 2.6 0.00 0.00 0.00 90 1012.7
20260906074528 76 249 0.9 2.6 0.00 0.00 0.00 90 1011.7
20260906074025 76 236 0.0 2.6 0.00 0.00 0.00 90 1011.5
20260906073522 76 236 0.0 2.6 0.00 0.00 0.00 90 1011.4
20260906073353 76 233 0.9 2.6 0.00 0.00 0.00 90 1012.3
20260906073056 76 242 0.9 3.5 0.00 0.00 0.00 90 1011.4
20260906072557 76 218 0.9 3.5 0.00 0.00 0.00 90 1011.5
20260906072052 76 245 0.9 3.5 0.00 0.00 0.00 90 1011.7
20260906071819 77 284 0.9 2.6 0.00 0.00 0.00 90 1012.6
20260906071551 76 261 0.9 2.6 0.00 0.00 0.00 90 1011.7
20260906071046 76 284 0.9 2.6 0.00 0.00 0.00 90 1011.9
20260906070544 76 252 0.0 3.5 0.00 0.00 0.00 89 1011.9
20260906070326 77 239 1.7 3.5 0.00 0.00 0.00 89 1012.9
20260906070033 76 261 0.9 3.5 0.00 0.00 0.00 89 1012.2
20260906065534 76 273 1.7 3.5 0.00 0.00 0.00 89 1012.2
20260906065032 76 257 0.9 2.6 0.00 0.00 0.00 89 1012.1
20260906064815 77 272 0.9 2.6 0.00 0.00 0.00 89 1013.1
20260906064521 76 260 0.9 2.6 0.00 0.00 0.00 89 1012.3
20260906064021 76 256 0.9 2.6 0.00 0.00 0.00 89 1012.4
20260906063518 76 269 0.9 2.6 0.00 0.00 0.00 89 1012.5
20260906063320 77 284 1.7 2.6 0.00 0.00 0.00 89 1013.4
20260906063010 77 287 0.9 2.6 0.00 0.00 0.00 88 1012.5
20260906062507 77 296 0.9 2.6 0.00 0.00 0.00 88 1012.7
20260906062010 77 250 0.9 2.6 0.00 0.00 0.00 88 1012.7
20260906061829 77 285 0.9 2.6 0.00 0.00 0.00 88 1013.8
20260906061603 77 255 0.9 2.6 0.00 0.00 0.00 88 1012.7
20260906061502 77 255 0.9 2.6 0.00 0.00 0.00 88 1012.8
20260906061058 77 248 0.0 3.5 0.00 0.00 0.00 88 1012.8
20260906060553 77 257 0.0 3.5 0.00 0.00 0.00 88 1012.9
20260906060346 77 227 1.7 3.5 0.00 0.00 0.00 88 1013.9
20260906060032 77 254 0.9 4.3 0.00 0.00 0.00 88 1012.8
20260906055523 77 264 1.7 4.3 0.00 0.00 0.00 89 1012.9
20260906055022 77 261 1.7 3.5 0.00 0.00 0.00 88 1013.0
20260906054813 77 277 1.7 3.5 0.00 0.00 0.00 89 1014.0
20260906054535 77 298 0.9 2.6 0.00 0.00 0.00 89 1013.1
20260906054015 77 296 0.9 2.6 0.00 0.00 0.00 89 1013.2
20260906053512 77 294 0.0 2.6 0.00 0.00 0.00 89 1013.2
20260906053324 78 313 0.9 2.6 0.00 0.00 0.00 89 1014.3
20260906053008 77 325 0.9 2.6 0.00 0.00 0.00 89 1013.3
20260906052505 77 308 0.9 3.5 0.00 0.00 0.00 89 1013.3
20260906052100 77 311 0.9 3.5 0.00 0.00 0.00 89 1013.2
20260906052003 77 284 0.9 3.5 0.00 0.00 0.00 89 1013.2
20260906051832 78 287 0.9 3.5 0.00 0.00 0.00 89 1014.1
20260906051611 77 340 1.7 3.5 0.00 0.00 0.00 89 1013.3
20260906051056 77 334 0.9 3.5 0.00 0.00 0.00 89 1013.3
20260906050553 77 346 0.9 3.5 0.00 0.00 0.00 89 1013.1
20260906050320 78 315 1.7 2.6 0.00 0.00 0.00 89 1014.0
20260906050049 77 272 0.9 2.6 0.00 0.00 0.00 89 1013.1
20260906045547 77 315 0.9 2.6 0.00 0.00 0.00 89 1013.0
20260906045048 78 311 0.0 2.6 0.00 0.00 0.00 90 1012.9
20260906044825 78 281 1.7 3.5 0.00 0.00 0.00 90 1013.9
20260906044550 78 290 0.9 4.3 0.00 0.00 0.00 90 1012.8
20260906044035 78 289 0.9 4.3 0.00 0.00 0.00 90 1012.8
20260906043533 78 277 0.9 2.6 0.00 0.00 0.00 90 1012.7
20260906043331 78 282 0.9 2.6 0.00 0.00 0.00 90 1013.6
20260906043033 78 271 0.9 2.6 0.00 0.00 0.00 90 1012.7
20260906042536 78 290 0.0 2.6 0.00 0.00 0.00 90 1012.7
20260906042041 78 255 0.0 2.6 0.00 0.00 0.00 89 1012.6
20260906041815 79 255 0.9 2.6 0.00 0.00 0.00 89 1013.5
20260906041542 78 255 0.0 2.6 0.00 0.00 0.00 89 1012.5
20260906041040 78 255 0.9 2.6 0.00 0.00 0.00 89 1012.7
20260906040537 78 256 0.0 2.6 0.00 0.00 0.00 89 1012.8
20260906040338 79 265 0.9 1.7 0.00 0.00 0.00 89 1013.8
20260906040023 78 292 0.9 1.7 0.00 0.00 0.00 89 1012.8
20260906035600 79 288 0.9 1.7 0.00 0.00 0.00 88 1012.7
20260906035501 79 252 0.0 1.7 0.00 0.00 0.00 88 1012.7
20260906035057 79 252 0.0 2.6 0.00 0.00 0.00 88 1012.6
20260906034839 79 252 0.0 2.6 0.00 0.00 0.00 88 1013.6
20260906034530 79 238 0.0 2.6 0.00 0.00 0.00 88 1012.6
20260906034026 79 267 0.0 2.6 0.00 0.00 0.00 88 1012.8
20260906033523 79 267 0.0 2.6 0.00 0.00 0.00 88 1012.9
20260906033331 79 266 0.0 2.6 0.00 0.00 0.00 88 1013.7
20260906033038 79 266 0.0 1.7 0.00 0.00 0.00 88 1012.8
20260906032517 79 267 0.0 2.6 0.00 0.00 0.00 88 1012.9
20260906032015 79 267 0.0 2.6 0.00 0.00 0.00 88 1012.9
20260906031820 80 267 0.9 2.6 0.00 0.00 0.00 88 1013.9
20260906031511 79 227 0.9 2.6 0.00 0.00 0.00 87 1012.9
20260906031009 79 260 0.9 2.6 0.00 0.00 0.00 87 1013.0
20260906030508 79 246 0.0 0.9 0.00 0.00 0.00 87 1013.2
20260906030333 80 246 0.0 0.9 0.00 0.00 0.00 87 1014.2
20260906030004 79 246 0.0 1.7 0.00 0.00 0.00 87 1013.3
20260906025559 79 246 0.0 1.7 0.00 0.00 0.00 87 1013.3
20260906025503 79 246 0.0 1.7 0.00 0.00 0.00 87 1013.3
20260906025057 79 246 0.0 1.7 0.00 0.00 0.00 87 1013.4
20260906024814 80 246 0.0 1.7 0.00 0.00 0.00 87 1014.3
20260906024605 79 246 0.0 1.7 0.00 0.00 0.00 87 1013.3
20260906024049 80 246 0.0 1.7 0.00 0.00 0.00 87 1013.3
20260906023544 80 246 0.0 1.7 0.00 0.00 0.00 87 1013.3
20260906023340 80 246 0.0 1.7 0.00 0.00 0.00 87 1014.2
20260906023018 80 294 0.0 1.7 0.00 0.00 0.00 87 1013.3
20260906022515 80 294 0.0 2.6 0.00 0.00 0.00 87 1013.4
20260906022013 80 294 0.9 2.6 0.00 0.00 0.00 87 1013.3
20260906021825 81 277 1.7 2.6 0.00 0.00 0.00 87 1014.2
20260906021512 80 257 0.9 2.6 0.00 0.00 0.00 87 1013.2
20260906021009 80 263 0.0 0.0 0.00 0.00 0.00 86 1013.1
20260906020505 80 263 0.0 0.9 0.00 0.00 0.00 86 1013.1
20260906020333 81 263 0.0 0.9 0.00 0.00 0.00 86 1014.1
20260906020100 80 263 0.0 0.9 0.00 0.00 0.00 86 1013.1
20260906020001 80 263 0.0 0.9 0.00 0.00 0.00 86 1013.1
20260906015557 81 263 0.0 0.9 0.00 0.00 0.00 86 1013.2
20260906015055 81 263 0.0 2.6 0.00 0.00 0.00 86 1013.0
20260906014823 81 232 0.0 2.6 0.00 0.00 0.00 85 1014.0
20260906014551 81 232 0.0 2.6 0.00 0.00 0.00 85 1012.9
20260906014049 81 258 0.0 2.6 0.00 0.00 0.00 85 1012.9
20260906013545 81 258 0.0 2.6 0.00 0.00 0.00 85 1012.8
20260906013316 82 258 0.9 1.7 0.00 0.00 0.00 85 1013.8
20260906013041 81 260 0.0 0.9 0.00 0.00 0.00 84 1012.8
20260906012539 81 260 0.0 0.9 0.00 0.00 0.00 84 1012.8
20260906012033 81 260 0.0 0.9 0.00 0.00 0.00 84 1012.7
20260906011826 82 260 0.0 0.0 0.00 0.00 0.00 84 1013.6
20260906011529 82 260 0.0 0.9 0.00 0.00 0.00 83 1012.5
20260906011029 82 260 0.0 0.9 0.00 0.00 0.00 83 1012.6
20260906010523 82 260 0.0 0.0 0.00 0.00 0.00 82 1012.4
20260906010320 82 260 0.0 0.0 0.00 0.00 0.00 82 1013.2
20260906010019 82 260 0.0 0.0 0.00 0.01 0.00 82 1012.3
20260906005514 82 260 0.0 0.0 0.00 0.01 0.00 82 1012.2
20260906005013 82 260 0.0 0.0 0.00 0.01 0.00 81 1012.0
20260906004830 83 260 0.0 0.0 0.00 0.01 0.00 81 1012.8
20260906004507 82 260 0.0 0.9 0.00 0.01 0.00 81 1011.8
20260906004007 82 260 0.0 1.7 0.00 0.01 0.00 81 1011.6
20260906003503 83 260 0.0 1.7 0.00 0.01 0.00 80 1011.5
20260906003324 83 260 0.9 1.7 0.00 0.01 0.00 80 1012.4
20260906003058 83 260 0.9 1.7 0.00 0.01 0.00 80 1011.4
20260906002559 83 260 0.0 1.7 0.00 0.01 0.00 79 1011.3
20260906002053 83 260 0.0 2.6 0.00 0.01 0.00 79 1011.3
20260906001814 84 260 0.9 2.6 0.00 0.01 0.00 79 1012.3
20260906001549 83 260 0.0 1.7 0.00 0.01 0.00 79 1011.3
20260906001047 83 260 0.0 1.7 0.00 0.01 0.00 79 1011.2
20260906000543 84 260 0.0 2.6 0.00 0.01 0.00 78 1011.2
20260906000326 84 266 0.9 2.6 0.00 0.01 0.00 78 1012.3
20260906000035 84 270 0.9 2.6 0.00 0.08 0.00 78 1011.4
20260905235531 84 292 0.9 3.5 0.00 0.08 0.00 78 1011.4
20260905235033 85 289 0.9 3.5 0.00 0.08 0.00 77 1011.4
20260905234815 85 283 0.9 3.5 0.00 0.08 0.00 77 1012.3
20260905234528 85 283 0.9 3.5 0.00 0.08 0.00 77 1011.4
20260905234023 85 287 0.9 3.5 0.00 0.08 0.00 77 1011.4
20260905233524 85 283 0.9 3.5 0.00 0.08 0.00 77 1011.7
20260905233325 86 266 1.7 3.5 0.00 0.08 0.00 76 1012.5
20260905233017 85 284 0.9 2.6 0.00 0.08 0.00 77 1011.7
20260905232516 86 284 1.7 2.6 0.00 0.08 0.00 76 1011.7
20260905232013 86 275 0.9 2.6 0.00 0.08 0.00 76 1011.8
20260905231832 87 255 0.9 2.6 0.00 0.08 0.00 75 1012.8
20260905231512 87 273 0.9 2.6 0.00 0.08 0.00 75 1011.8
20260905231006 87 263 0.9 2.6 0.00 0.08 0.00 73 1011.8
20260905230504 87 265 0.9 2.6 0.00 0.08 0.00 72 1011.9
20260905230325 88 253 1.7 2.6 0.00 0.08 0.00 71 1012.7
20260905230105 87 246 0.0 3.5 0.00 0.08 0.00 72 1011.8
20260905225554 88 242 0.0 3.5 0.00 0.08 0.00 71 1011.9
20260905225051 88 250 0.0 2.6 0.00 0.08 0.00 70 1011.9
20260905224818 88 250 0.9 2.6 0.00 0.08 0.00 69 1012.8
20260905224610 88 232 0.0 2.6 0.00 0.08 0.00 69 1011.9
20260905224042 88 246 0.0 1.7 0.00 0.08 0.00 69 1011.9
20260905223537 89 292 0.0 3.5 0.00 0.08 0.00 69 1011.9
20260905223330 89 238 0.0 3.5 0.00 0.08 0.00 68 1012.8
20260905223043 89 232 1.7 3.5 0.00 0.08 0.00 67 1011.9
20260905222534 89 208 0.0 3.5 0.00 0.08 0.00 68 1011.9
20260905222028 89 185 0.9 3.5 0.00 0.08 0.00 67 1012.1
20260905221820 90 213 0.9 3.5 0.00 0.08 0.00 66 1013.0
20260905221525 89 196 0.0 3.5 0.00 0.08 0.00 66 1012.1
20260905221021 89 202 0.9 4.3 0.00 0.08 0.00 66 1012.0
20260905220517 89 190 1.7 4.3 0.00 0.08 0.00 65 1011.9
20260905220314 90 207 0.9 3.5 0.00 0.08 0.00 65 1012.9
20260905220013 90 163 0.9 3.5 0.00 0.08 0.00 66 1011.9
20260905215509 90 230 0.0 2.6 0.00 0.08 0.00 66 1012.0
20260905215009 90 155 0.9 2.6 0.00 0.08 0.00 66 1012.1
20260905214822 90 213 0.9 2.6 0.00 0.08 0.00 66 1012.9
20260905214503 90 239 0.0 4.3 0.00 0.08 0.00 65 1012.0
20260905214059 90 200 1.7 4.3 0.00 0.08 0.00 65 1012.0
20260905214001 90 192 1.7 4.3 0.00 0.08 0.00 65 1012.0
20260905213554 90 224 0.9 4.3 0.00 0.08 0.00 65 1012.1
20260905213351 91 216 1.7 3.5 0.00 0.08 0.00 64 1013.0
20260905213032 91 227 0.9 3.5 0.00 0.08 0.00 64 1012.1
20260905212533 91 224 0.9 4.3 0.00 0.08 0.00 63 1012.2
20260905212020 91 182 0.0 4.3 0.00 0.08 0.00 63 1012.1
20260905211836 92 282 0.9 4.3 0.00 0.08 0.00 62 1013.0
20260905211556 92 239 0.9 5.2 0.00 0.08 0.00 61 1012.2
20260905211051 92 242 1.7 7.0 0.00 0.08 0.00 62 1012.3
20260905210547 92 173 1.7 7.0 0.00 0.08 0.00 63 1012.4
20260905210327 92 142 1.7 7.0 0.00 0.08 0.00 62 1013.2
20260905210052 92 189 1.7 6.1 0.00 0.18 0.00 63 1012.5
20260905205535 92 247 0.9 5.2 0.00 0.18 0.00 63 1012.5
20260905205037 91 215 2.6 7.0 0.00 0.18 0.00 65 1012.4
20260905204813 92 242 1.7 7.0 0.00 0.18 0.00 65 1013.2
20260905204535 91 283 2.6 7.0 0.00 0.18 0.00 65 1012.3
20260905204023 90 212 2.6 6.1 0.00 0.18 0.00 67 1012.3
20260905203525 90 230 1.7 6.1 0.00 0.18 0.00 67 1012.2
20260905203343 90 218 2.6 6.1 0.00 0.18 0.00 68 1013.1
20260905203003 89 252 1.7 6.1 0.00 0.18 0.00 68 1012.2
20260905202558 90 259 2.6 6.1 0.00 0.18 0.00 66 1012.4
20260905202502 89 220 1.7 7.0 0.00 0.18 0.00 67 1012.3
20260905202058 89 291 2.6 7.0 0.00 0.18 0.00 66 1012.3
20260905202002 89 259 3.5 7.0 0.00 0.18 0.00 65 1012.3
20260905201827 90 262 2.6 6.1 0.00 0.18 0.00 65 1013.2
20260905201507 89 266 3.5 7.8 0.00 0.18 0.00 64 1012.3
20260905201010 89 288 1.7 7.8 0.00 0.18 0.00 68 1012.4
20260905200512 90 251 2.6 7.8 0.00 0.18 0.00 65 1012.4
20260905200314 91 272 3.5 7.8 0.00 0.18 0.00 63 1013.4
20260905200020 91 263 4.3 7.8 0.00 0.18 0.00 62 1012.5
20260905195512 92 254 3.5 6.1 0.00 0.18 0.00 61 1012.6
20260905195008 93 255 0.9 6.1 0.00 0.18 0.00 61 1012.7
20260905194819 94 222 0.9 6.1 0.00 0.18 0.00 59 1013.6
20260905194508 93 242 1.7 6.1 0.00 0.18 0.00 61 1012.7
20260905194008 92 258 1.7 5.2 0.00 0.18 0.00 62 1012.8
20260905193508 92 311 1.7 7.0 0.00 0.18 0.00 63 1013.0
20260905193326 93 279 2.6 7.0 0.00 0.18 0.00 62 1013.9
20260905193005 92 226 0.9 7.0 0.00 0.18 0.00 64 1013.0
20260905192506 92 292 2.6 7.0 0.00 0.18 0.00 64 1013.3
20260905192009 93 254 1.7 5.2 0.00 0.18 0.00 62 1013.2
20260905191831 93 210 2.6 7.8 0.00 0.18 0.00 61 1014.1
20260905191505 92 227 1.7 7.8 0.00 0.18 0.00 63 1013.1
20260905191100 92 221 2.6 7.8 0.00 0.18 0.00 61 1013.2
20260905191002 92 193 1.7 7.0 0.00 0.18 0.00 63 1013.1
20260905190600 91 103 0.9 7.0 0.00 0.18 0.00 67 1013.3
20260905190504 90 202 1.7 7.0 0.00 0.18 0.00 67 1013.3
20260905190318 91 297 3.5 7.0 0.00 0.18 0.00 65 1014.2
20260905190008 90 283 3.5 7.0 0.00 0.18 0.00 63 1013.3
20260905185514 90 288 0.9 8.7 0.00 0.18 0.00 63 1013.3
20260905185020 90 321 2.6 8.7 0.00 0.18 0.00 63 1013.4
20260905184825 91 290 3.5 8.7 0.00 0.18 0.00 64 1014.3
20260905184530 91 296 2.6 7.0 0.00 0.18 0.00 64 1013.4
20260905184031 92 257 1.7 6.1 0.00 0.18 0.00 62 1013.4
20260905183526 91 205 1.7 6.1 0.00 0.18 0.00 62 1013.4
20260905183333 91 232 2.6 6.1 0.00 0.18 0.00 66 1014.5
20260905183028 90 214 0.9 4.3 0.00 0.18 0.00 68 1013.6
20260905182533 90 280 2.6 7.0 0.00 0.18 0.00 66 1013.6
20260905182033 90 257 3.5 7.0 0.00 0.18 0.00 67 1013.7
20260905181839 90 267 2.6 7.0 0.00 0.18 0.00 66 1014.6
20260905181512 90 251 1.7 7.0 0.00 0.18 0.00 64 1013.8
20260905181008 90 153 0.9 3.5 0.00 0.18 0.00 66 1013.9
20260905180506 89 223 0.9 5.2 0.00 0.18 0.00 66 1014.0
20260905180325 90 284 0.9 5.2 0.00 0.18 0.00 66 1014.9
20260905180047 89 213 0.9 5.2 0.00 0.18 0.00 69 1014.0
20260905175543 89 286 1.7 5.2 0.00 0.18 0.00 68 1014.3
20260905175044 89 211 1.7 6.1 0.00 0.18 0.00 68 1014.4
20260905174829 89 267 2.6 6.1 0.00 0.18 0.00 68 1015.2
20260905174526 89 289 3.5 6.1 0.00 0.18 0.00 68 1014.4
20260905174030 89 215 1.7 6.1 0.00 0.18 0.00 68 1014.5
20260905173535 88 225 1.7 6.1 0.00 0.18 0.00 69 1014.6
20260905173318 89 295 2.6 6.1 0.00 0.18 0.00 68 1015.6
20260905173026 88 171 0.9 4.3 0.00 0.18 0.00 68 1014.7
20260905172524 88 201 0.9 4.3 0.00 0.18 0.00 69 1014.6
20260905172023 87 282 1.7 7.0 0.00 0.18 0.00 70 1014.7
20260905171831 88 226 0.9 7.0 0.00 0.18 0.00 72 1015.6
20260905171519 87 273 1.7 5.2 0.00 0.18 0.00 70 1014.8
20260905171014 87 195 0.9 5.2 0.00 0.18 0.00 71 1015.0
20260905170512 88 271 0.9 6.1 0.00 0.18 0.00 69 1014.9
20260905170323 88 234 0.9 6.1 0.00 0.18 0.00 69 1015.8
20260905170011 88 241 1.7 6.1 0.00 0.18 0.00 69 1015.0
20260905165506 88 193 0.9 5.2 0.00 0.18 0.00 71 1015.0
20260905165056 88 212 1.7 6.1 0.00 0.18 0.00 71 1015.0
20260905164832 88 270 1.7 6.1 0.00 0.18 0.00 72 1016.0
20260905164539 88 217 1.7 6.1 0.00 0.18 0.00 70 1015.0
20260905164038 87 5 0.9 3.5 0.00 0.18 0.00 72 1015.1
20260905163533 86 211 0.9 4.3 0.00 0.18 0.00 73 1015.2
20260905163323 86 195 1.7 4.3 0.00 0.18 0.00 74 1016.1
20260905163027 86 315 1.7 4.3 0.00 0.18 0.00 72 1015.4
20260905162528 87 256 0.9 4.3 0.00 0.18 0.00 71 1015.4
20260905162023 87 255 0.9 3.5 0.00 0.18 0.00 71 1015.4
20260905161835 87 188 0.9 4.3 0.00 0.18 0.00 72 1016.3
20260905161606 86 206 0.0 4.3 0.00 0.18 0.00 72 1015.4
20260905161052 86 136 1.7 4.3 0.00 0.18 0.00 73 1015.5
20260905160544 85 155 0.9 5.2 0.00 0.18 0.00 73 1015.6
20260905160343 86 223 1.7 5.2 0.00 0.18 0.00 74 1016.4
20260905160019 85 192 2.6 5.2 0.00 0.18 0.00 75 1015.5
20260905155517 84 304 1.7 4.3 0.00 0.18 0.00 79 1015.5
20260905155014 83 304 0.9 4.3 0.00 0.18 0.00 78 1015.6
20260905154833 84 292 2.6 4.3 0.00 0.18 0.00 76 1016.5
20260905154511 83 195 0.9 5.2 0.00 0.18 0.00 78 1015.6
20260905154007 82 205 1.7 5.2 0.00 0.18 0.00 79 1015.6
20260905153601 82 292 1.7 5.2 0.00 0.18 0.00 80 1015.8
20260905153502 82 293 1.7 5.2 0.00 0.18 0.00 80 1015.9
20260905153323 82 255 1.7 5.2 0.00 0.18 0.00 80 1016.8
20260905153056 82 262 0.0 2.6 0.00 0.18 0.00 80 1015.9
20260905152554 82 284 0.9 3.5 0.00 0.18 0.00 80 1016.0
20260905152050 81 313 0.9 3.5 0.00 0.18 0.00 80 1016.0
20260905151814 82 293 1.7 3.5 0.00 0.18 0.00 80 1016.9
20260905151546 81 304 0.9 3.5 0.00 0.18 0.00 80 1016.0
20260905151044 81 199 0.0 3.5 0.00 0.18 0.00 81 1016.1
20260905150542 81 301 1.7 3.5 0.00 0.18 0.00 81 1016.0
20260905150326 81 271 0.9 3.5 0.00 0.18 0.00 82 1016.8
20260905150034 80 277 0.0 4.3 0.00 0.18 0.00 81 1015.9
20260905145533 80 270 1.7 4.3 0.00 0.18 0.00 81 1016.0
20260905145028 80 320 0.9 4.3 0.00 0.18 0.00 82 1016.0
20260905144853 80 297 0.9 4.3 0.00 0.18 0.00 82 1016.9
20260905144601 80 273 0.9 4.3 0.00 0.18 0.00 82 1016.0
20260905144506 80 273 0.9 4.3 0.00 0.18 0.00 83 1016.1
20260905144058 80 278 1.7 4.3 0.00 0.18 0.00 82 1016.1
20260905143556 80 310 0.9 4.3 0.00 0.18 0.00 83 1016.2
20260905143323 80 5 2.6 7.0 0.00 0.18 0.00 82 1017.1
20260905143052 80 277 1.7 7.0 0.00 0.18 0.00 82 1016.2
20260905142552 79 296 2.6 7.0 0.00 0.18 0.00 83 1016.1
20260905142047 79 257 1.7 7.0 0.00 0.18 0.00 85 1016.1
20260905141825 79 289 3.5 7.0 0.00 0.18 0.00 85 1017.0
20260905141544 79 280 2.6 6.1 0.00 0.18 0.00 86 1016.1
20260905141034 78 283 2.6 6.1 0.00 0.18 0.00 86 1016.0
20260905140532 78 260 2.6 6.1 0.00 0.18 0.00 86 1015.8
20260905140329 78 293 3.5 6.1 0.00 0.18 0.00 87 1016.8
20260905140028 78 240 1.7 3.5 0.00 0.18 0.00 88 1015.9
20260905135526 77 312 0.9 6.1 0.00 0.18 0.00 88 1016.1
20260905135025 77 260 0.9 6.1 0.00 0.18 0.00 89 1016.0
20260905134849 77 282 1.7 6.1 0.00 0.18 0.00 89 1017.0
20260905134558 77 267 1.7 4.3 0.00 0.18 0.00 89 1016.1
20260905134054 77 238 1.7 7.0 0.00 0.18 0.00 90 1015.9
20260905133550 76 265 2.6 7.0 0.00 0.18 0.00 91 1016.0
20260905133332 76 286 2.6 5.2 0.00 0.18 0.00 91 1016.9
20260905133048 76 264 0.0 6.1 0.00 0.18 0.00 91 1015.9
20260905132547 76 240 2.6 6.1 0.00 0.18 0.00 92 1016.0
20260905132046 76 265 0.9 6.1 0.00 0.18 0.00 92 1016.0
20260905131851 76 300 1.7 6.1 0.00 0.18 0.00 92 1016.8
20260905131530 75 253 2.6 6.1 0.00 0.18 0.00 92 1016.0
20260905131030 75 273 1.7 6.1 0.00 0.18 0.00 92 1016.2
20260905130535 75 292 0.0 6.1 0.00 0.18 0.00 92 1016.1
20260905130333 75 281 1.7 6.1 0.00 0.18 0.00 92 1016.9
20260905130036 75 279 1.7 3.5 0.00 0.18 0.00 92 1016.0
20260905125538 75 238 0.9 2.6 0.00 0.18 0.00 92 1016.0